COSMOS 2162

导读

COSMOS 2162是独联体(CIS)1991年9月28日发射的“宇宙”系列卫星。该系列卫星多数承担军事任务,部分搭载科学实验载荷。作为苏联解体后独联体早期航天活动的一部分,它延续了苏联“宇宙”卫星的保密传统,具体任务细节未公开。作为低轨卫星,它完成既定使命后已退役,成为空间碎片,见证了后苏联时代航天转型的开端,是独联体时期航天活动的典型见证。

基本信息
目录编号:
21733
目录名称:
COSMOS 2162
国际标识:
1991-068F
轨道中心:
EARTH
卫星名称:
COSMOS 2162
卫星全名:
--
卫星状态:
在轨 (已飞行12779 天)
发射日期:
1991-09-28 UTC
国别 :
俄罗斯(独联体) (CIS)
星等 :
--
该卫星已列入 空间交会检测服务 Space Conjunction Data Service (SCDS) ,当前飞行风险评估等级: 无高风险
轨道信息
数据来源 国际轨道数据 AOE轨道数据
星历时间 2026-09-23T02:49:33+0800
10小时前
查看轨道信息
2026-09-22T22:00:00+0800
15小时前
查看轨道信息
半长轴 7791.025km 7791.015km
偏心率 0.000688 0.000693
轨道倾角 82.584° 82.585°
近地点辐角 5.406° 7.466°
升交点赤经 277.356° 277.485°
平近点角 167.631° 332.209°
近地点 1407.527km 1407.478km
远地点 1418.249km 1418.278km
周期 114.065分钟 114.065分钟
每日圈数 12.624404 12.624429
详细信息
使用方式:
暂无
2D轨道图
3D轨道图
轨道高度分析图
轨道倾角分析图
轨道综合分析图
查看轨道综合分析图
交会数据列表
事件ID 空间交会对象 最接近时刻(TCA) 交会距离 交会风险概率(CRP) 交会风险指数(CRI) 操作
CDM_260924-101902-173302-344324
2026-09-24T
10:19:20+0000
2.231 km
极远距离
7.640496E-7 极低风险 0.33
与全量物体交会距离演化趋势 订阅飞行安全评估服务
与全量物体交会风险概率演化趋势 订阅飞行安全评估服务